Milford, UT

8:36 PM MDT on May 27, 2017 (GMT -0600)
Milford Municipal

Weather History for KMLF - August, 2013

Change the Weather History Date:

Wednesday, August 28, 2013

  Actual Average Record
Temperature  
Mean Temperature 70 °F -  
Max Temperature 89 °F 86 °F 96 °F (2001)
Min Temperature 53 °F 51 °F 39 °F (2004)
Cooling Degree Days 6    
Growing Degree Days 20 (Base 50)    
Moisture  
Dew Point 49 °F    
Average Humidity 47    
Maximum Humidity 86    
Minimum Humidity 12    
Precipitation  
Precipitation 0.00 in - - ()
Sea Level Pressure  
Sea Level Pressure 29.94 in    
Wind  
Wind Speed 7 mph (South)    
Max Wind Speed 16 mph    
Max Gust Speed 24 mph    
Visibility 10 miles    
Events      
Averages and records for this station are not official NWS values.
T = Trace of Precipitation, MM = Missing Value Source: NWS Daily Summary

Daily Weather History Graph

Daily Weather History Graph

Search for Another Location

Airport or City:

Trip Planner

Search our weather history database for the weather conditions in past years. The results will help you decide how hot, cold, wet, or windy it might be!

Date:

Astronomy

Aug. 28, 2013 Rise Set
Actual Time 6:58 AM MDT 8:07 PM MDT
Civil Twilight 6:30 AM MDT 8:34 PM MDT
Nautical Twilight 5:58 AM MDT 9:07 PM MDT
Astronomical Twilight 5:24 AM MDT 9:41 PM MDT
Moon 12:10 AM MDT 2:46 PM MDT
Length of Visible Light 14h 03m
Length of Day
13h 09m
Waning Gibbous, 47% of the Moon is Illuminated
Aug 28
Waning Gibbous
Sep 5
New
Sep 12
First Quarter
Sep 19
Full
Sep 26
Last Quarter

Hourly Weather History & Observations

Time (MDT) Temp. Dew Point Humidity Pressure Visibility Wind Dir Wind Speed Gust Speed Precip Events Conditions
12:52 AM 62.1 °F 53.1 °F 72% 29.94 in 10.0 mi Calm Calm - N/A   Clear
1:52 AM 61.0 °F 52.0 °F 72% 29.94 in 10.0 mi WSW 6.9 mph - N/A   Clear
2:52 AM 59.0 °F 50.0 °F 72% 29.94 in 10.0 mi SSW 8.1 mph - N/A   Clear
3:52 AM 57.0 °F 51.1 °F 81% 29.94 in 10.0 mi SSW 3.5 mph - N/A   Clear
4:52 AM 57.0 °F 51.1 °F 81% 29.94 in 10.0 mi Calm Calm - N/A   Clear
5:52 AM 55.9 °F 51.1 °F 84% 29.95 in 10.0 mi SSW 5.8 mph - N/A   Clear
6:52 AM 54.0 °F 50.0 °F 86% 29.97 in 10.0 mi Calm Calm - N/A   Clear
7:52 AM 57.0 °F 52.0 °F 83% 29.99 in 10.0 mi SW 5.8 mph - N/A   Clear
8:52 AM 63.0 °F 52.0 °F 67% 29.99 in 10.0 mi South 3.5 mph - N/A   Clear
9:52 AM 69.1 °F 53.1 °F 57% 29.99 in 10.0 mi South 4.6 mph - N/A   Clear
10:52 AM 75.9 °F 48.9 °F 38% 29.98 in 10.0 mi South 4.6 mph - N/A   Clear
11:52 AM 81.0 °F 46.9 °F 30% 29.97 in 10.0 mi South 8.1 mph - N/A   Clear
12:52 PM 84.0 °F 48.0 °F 28% 29.96 in 10.0 mi South 12.7 mph 18.4 mph N/A   Clear
1:52 PM 88.0 °F 44.1 °F 22% 29.92 in 10.0 mi SSW 12.7 mph 20.7 mph N/A   Clear
2:52 PM 89.1 °F 43.0 °F 20% 29.91 in 10.0 mi South 15.0 mph 23.0 mph N/A   Scattered Clouds
3:52 PM 88.0 °F 45.0 °F 22% 29.92 in 10.0 mi South 13.8 mph 24.2 mph N/A   Clear
4:52 PM 88.0 °F 44.1 °F 22% 29.89 in 10.0 mi SSE 9.2 mph 16.1 mph N/A   Clear
5:52 PM 87.1 °F 43.0 °F 21% 29.89 in 10.0 mi SE 11.5 mph - N/A   Clear
6:52 PM 86.0 °F 45.0 °F 24% 29.91 in 10.0 mi SSW 8.1 mph - N/A   Clear
7:52 PM 82.0 °F 46.0 °F 28% 29.91 in 10.0 mi SE 11.5 mph - N/A   Clear
8:52 PM 79.0 °F 48.0 °F 34% 29.92 in 10.0 mi South 4.6 mph - N/A   Partly Cloudy
9:52 PM 75.0 °F 50.0 °F 41% 29.96 in 10.0 mi SSW 9.2 mph - N/A   Clear
10:52 PM 73.9 °F 51.1 °F 45% 29.97 in 10.0 mi SSW 10.4 mph - N/A   Clear
11:52 PM 73.0 °F 52.0 °F 48% 29.96 in 10.0 mi SW 9.2 mph - N/A   Clear